contact:dominique.lefevre@mio.osupytheas.fr, maurice.libes@osupytheas.fr, didier.mallarino@osupytheas.fr
Project:EMSO http://www.emso-fr.org/EMSO-France
Depth: 2436.0 m
Title:EMSO Ligure Ouest : Data MII capteur MICROCAT
DateTime_Computer,Latitude,Longitude,Temperature,Conductivity,Pressure,DateTime_Instrument
DateTime_Computer,Latitude,Longitude,degC,S m-1,dbar,DateTime_Instrument
2023-06-25T00:01:15Z,42.805,6.029,13.3024,4.60087,2470.763,2023-6-25T02:03:30Z
2023-06-25T00:04:19Z,42.805,6.029,13.3023,4.60089,2470.787,2023-6-25T02:06:33Z
2023-06-25T00:07:22Z,42.805,6.029,13.3028,4.60081,2470.81,2023-6-25T02:09:37Z
2023-06-25T00:10:25Z,42.805,6.029,13.3036,4.60085,2470.81,2023-6-25T02:12:40Z
2023-06-25T00:13:28Z,42.805,6.029,13.3024,4.60084,2470.8,2023-6-25T02:15:43Z
2023-06-25T00:16:31Z,42.805,6.029,13.3024,4.60083,2470.81,2023-6-25T02:18:46Z
2023-06-25T00:19:34Z,42.805,6.029,13.3025,4.60081,2470.824,2023-6-25T02:21:49Z
2023-06-25T00:22:37Z,42.805,6.029,13.3028,4.60081,2470.787,2023-6-25T02:24:52Z
2023-06-25T00:25:40Z,42.805,6.029,13.3020,4.60081,2470.74,2023-6-25T02:27:55Z
2023-06-25T00:28:43Z,42.805,6.029,13.3021,4.60082,2470.8,2023-6-25T02:30:58Z
2023-06-25T00:31:46Z,42.805,6.029,13.3028,4.60083,2470.81,2023-6-25T02:34:01Z
2023-06-25T00:34:49Z,42.805,6.029,13.3024,4.60087,2470.787,2023-6-25T02:37:04Z
2023-06-25T00:37:52Z,42.805,6.029,13.3025,4.60083,2470.787,2023-6-25T02:40:07Z
2023-06-25T00:40:56Z,42.805,6.029,13.3021,4.60084,2470.8,2023-6-25T02:43:10Z
2023-06-25T00:43:59Z,42.805,6.029,13.3024,4.60081,2470.81,2023-6-25T02:46:14Z
2023-06-25T00:47:02Z,42.805,6.029,13.3022,4.60084,2470.8,2023-6-25T02:49:17Z
2023-06-25T00:50:05Z,42.805,6.029,13.3025,4.60081,2470.787,2023-6-25T02:52:20Z
2023-06-25T00:53:08Z,42.805,6.029,13.3024,4.60086,2470.81,2023-6-25T02:55:23Z
2023-06-25T00:56:11Z,42.805,6.029,13.3019,4.60084,2470.8,2023-6-25T02:58:26Z
2023-06-25T00:59:14Z,42.805,6.029,13.3021,4.60083,2470.777,2023-6-25T03:01:29Z
2023-06-25T01:02:17Z,42.805,6.029,13.3023,4.60079,2470.763,2023-6-25T03:04:32Z
2023-06-25T01:05:20Z,42.805,6.029,13.3022,4.60080,2470.847,2023-6-25T03:07:35Z
2023-06-25T01:08:23Z,42.805,6.029,13.3020,4.60088,2470.777,2023-6-25T03:10:38Z
2023-06-25T01:11:26Z,42.805,6.029,13.3020,4.60081,2470.81,2023-6-25T03:13:41Z
2023-06-25T01:14:29Z,42.805,6.029,13.3022,4.60082,2470.763,2023-6-25T03:16:44Z
2023-06-25T01:17:33Z,42.805,6.029,13.3024,4.60082,2470.8,2023-6-25T03:19:48Z
2023-06-25T01:20:36Z,42.805,6.029,13.3023,4.60084,2470.763,2023-6-25T03:22:51Z
2023-06-25T01:23:39Z,42.805,6.029,13.3022,4.60084,2470.787,2023-6-25T03:25:54Z
2023-06-25T01:26:42Z,42.805,6.029,13.3023,4.60082,2470.787,2023-6-25T03:28:57Z
2023-06-25T01:29:45Z,42.805,6.029,13.3023,4.60081,2470.8,2023-6-25T03:32:00Z
2023-06-25T01:32:48Z,42.805,6.029,13.3024,4.60081,2470.787,2023-6-25T03:35:03Z
2023-06-25T01:35:51Z,42.805,6.029,13.3017,4.60079,2470.8,2023-6-25T03:38:06Z
2023-06-25T01:38:54Z,42.805,6.029,13.3020,4.60083,2470.763,2023-6-25T03:41:09Z
2023-06-25T01:41:57Z,42.805,6.029,13.3024,4.60083,2470.74,2023-6-25T03:44:12Z
2023-06-25T01:45:00Z,42.805,6.029,13.3021,4.60081,2470.8,2023-6-25T03:47:15Z
2023-06-25T01:48:03Z,42.805,6.029,13.3024,4.60093,2470.763,2023-6-25T03:50:18Z
2023-06-25T01:51:06Z,42.805,6.029,13.3024,4.60082,2470.763,2023-6-25T03:53:21Z
2023-06-25T01:54:10Z,42.805,6.029,13.3018,4.60082,2470.74,2023-6-25T03:56:25Z
2023-06-25T01:57:13Z,42.805,6.029,13.3021,4.60083,2470.763,2023-6-25T03:59:28Z
2023-06-25T02:00:16Z,42.805,6.029,13.3022,4.60083,2470.787,2023-6-25T04:02:31Z
2023-06-25T02:03:19Z,42.805,6.029,13.3023,4.60083,2470.763,2023-6-25T04:05:34Z
2023-06-25T02:06:22Z,42.805,6.029,13.3022,4.60086,2470.777,2023-6-25T04:08:37Z
2023-06-25T02:09:25Z,42.805,6.029,13.3024,4.60082,2470.777,2023-6-25T04:11:40Z
2023-06-25T02:12:28Z,42.805,6.029,13.3022,4.60082,2470.754,2023-6-25T04:14:43Z
2023-06-25T02:15:31Z,42.805,6.029,13.3024,4.60083,2470.763,2023-6-25T04:17:46Z
2023-06-25T02:18:34Z,42.805,6.029,13.3023,4.60081,2470.787,2023-6-25T04:20:49Z
2023-06-25T02:21:37Z,42.805,6.029,13.3023,4.60082,2470.763,2023-6-25T04:23:52Z
2023-06-25T02:24:40Z,42.805,6.029,13.3021,4.60081,2470.777,2023-6-25T04:26:55Z
2023-06-25T02:27:43Z,42.805,6.029,13.3024,4.60085,2470.8,2023-6-25T04:29:58Z
2023-06-25T02:30:47Z,42.805,6.029,13.3020,4.60085,2470.787,2023-6-25T04:33:02Z
2023-06-25T02:33:50Z,42.805,6.029,13.3021,4.60084,2470.763,2023-6-25T04:36:05Z
2023-06-25T02:36:53Z,42.805,6.029,13.3021,4.60083,2470.74,2023-6-25T04:39:08Z
2023-06-25T02:39:56Z,42.805,6.029,13.3021,4.60091,2470.777,2023-6-25T04:42:11Z
2023-06-25T02:42:59Z,42.805,6.029,13.3022,4.60085,2470.74,2023-6-25T04:45:14Z
2023-06-25T02:46:02Z,42.805,6.029,13.3018,4.60087,2470.763,2023-6-25T04:48:17Z
2023-06-25T02:49:05Z,42.805,6.029,13.3019,4.60085,2470.74,2023-6-25T04:51:20Z
2023-06-25T02:52:08Z,42.805,6.029,13.3024,4.60081,2470.777,2023-6-25T04:54:23Z
2023-06-25T02:55:11Z,42.805,6.029,13.3017,4.60087,2470.74,2023-6-25T04:57:26Z
2023-06-25T02:58:14Z,42.805,6.029,13.3023,4.60081,2470.763,2023-6-25T05:00:29Z
2023-06-25T03:01:17Z,42.805,6.029,13.3023,4.60081,2470.777,2023-6-25T05:03:32Z
2023-06-25T03:04:20Z,42.805,6.029,13.3022,4.60082,2470.754,2023-6-25T05:06:35Z
2023-06-25T03:07:24Z,42.805,6.029,13.3022,4.60088,2470.763,2023-6-25T05:09:39Z
2023-06-25T03:10:27Z,42.805,6.029,13.3024,4.60088,2470.73,2023-6-25T05:12:42Z
2023-06-25T03:13:30Z,42.805,6.029,13.3019,4.60093,2470.763,2023-6-25T05:15:45Z
2023-06-25T03:16:33Z,42.805,6.029,13.3021,4.60092,2470.74,2023-6-25T05:18:48Z
2023-06-25T03:19:36Z,42.805,6.029,13.3030,4.60097,2470.74,2023-6-25T05:21:51Z
2023-06-25T03:22:39Z,42.805,6.029,13.3021,4.60096,2470.754,2023-6-25T05:24:54Z
2023-06-25T03:25:42Z,42.805,6.029,13.3024,4.60091,2470.754,2023-6-25T05:27:57Z
2023-06-25T03:28:45Z,42.805,6.029,13.3029,4.60089,2470.74,2023-6-25T05:31:00Z
2023-06-25T03:31:48Z,42.805,6.029,13.3025,4.60085,2470.777,2023-6-25T05:34:03Z
2023-06-25T03:34:51Z,42.805,6.029,13.3022,4.60081,2470.717,2023-6-25T05:37:06Z
2023-06-25T03:37:54Z,42.805,6.029,13.3021,4.60081,2470.74,2023-6-25T05:40:09Z
2023-06-25T03:40:57Z,42.805,6.029,13.3024,4.60098,2470.754,2023-6-25T05:43:12Z
2023-06-25T03:44:01Z,42.805,6.029,13.3061,4.60109,2470.717,2023-6-25T05:46:15Z
2023-06-25T03:47:04Z,42.805,6.029,13.3026,4.60088,2470.74,2023-6-25T05:49:19Z
2023-06-25T03:50:07Z,42.805,6.029,13.3026,4.60095,2470.717,2023-6-25T05:52:22Z
2023-06-25T03:53:10Z,42.805,6.029,13.3029,4.60091,2470.74,2023-6-25T05:55:25Z
2023-06-25T03:56:13Z,42.805,6.029,13.3045,4.60102,2470.707,2023-6-25T05:58:28Z
2023-06-25T03:59:16Z,42.805,6.029,13.3054,4.60107,2470.707,2023-6-25T06:01:31Z
2023-06-25T04:02:19Z,42.805,6.029,13.3058,4.60124,2470.74,2023-6-25T06:04:34Z
2023-06-25T04:05:22Z,42.805,6.029,13.3062,4.60137,2470.717,2023-6-25T06:07:37Z
2023-06-25T04:08:25Z,42.805,6.029,13.3058,4.60157,2470.707,2023-6-25T06:10:40Z
2023-06-25T04:11:28Z,42.805,6.029,13.3055,4.60104,2470.707,2023-6-25T06:13:43Z
2023-06-25T04:14:31Z,42.805,6.029,13.3063,4.60140,2470.754,2023-6-25T06:16:46Z
2023-06-25T04:17:34Z,42.805,6.029,13.3054,4.60119,2470.73,2023-6-25T06:19:49Z
2023-06-25T04:20:38Z,42.805,6.029,13.3051,4.60122,2470.693,2023-6-25T06:22:52Z
2023-06-25T04:23:41Z,42.805,6.029,13.3062,4.60144,2470.754,2023-6-25T06:25:56Z
2023-06-25T04:26:44Z,42.805,6.029,13.3062,4.60119,2470.717,2023-6-25T06:28:59Z
2023-06-25T04:29:47Z,42.805,6.029,13.3051,4.60116,2470.693,2023-6-25T06:32:02Z
2023-06-25T04:32:50Z,42.805,6.029,13.3057,4.60129,2470.74,2023-6-25T06:35:05Z
2023-06-25T04:35:53Z,42.805,6.029,13.3049,4.60144,2470.717,2023-6-25T06:38:08Z
2023-06-25T04:38:56Z,42.805,6.029,13.3053,4.60160,2470.717,2023-6-25T06:41:11Z
2023-06-25T04:41:59Z,42.805,6.029,13.3051,4.60106,2470.707,2023-6-25T06:44:14Z
2023-06-25T04:45:02Z,42.805,6.029,13.3040,4.60121,2470.717,2023-6-25T06:47:17Z
2023-06-25T04:48:05Z,42.805,6.029,13.3047,4.60148,2470.754,2023-6-25T06:50:20Z
2023-06-25T04:51:08Z,42.805,6.029,13.3054,4.60190,2470.74,2023-6-25T06:53:23Z
2023-06-25T04:54:11Z,42.805,6.029,13.3042,4.60181,2470.693,2023-6-25T06:56:26Z
2023-06-25T04:57:15Z,42.805,6.029,13.3054,4.60175,2470.717,2023-6-25T06:59:30Z
2023-06-25T05:00:18Z,42.805,6.029,13.3044,4.60166,2470.693,2023-6-25T07:02:33Z
2023-06-25T05:03:21Z,42.805,6.029,13.3049,4.60140,2470.693,2023-6-25T07:05:36Z
2023-06-25T05:06:24Z,42.805,6.029,13.3060,4.60170,2470.73,2023-6-25T07:08:39Z
2023-06-25T05:09:27Z,42.805,6.029,13.3041,4.60137,2470.693,2023-6-25T07:11:42Z
2023-06-25T05:12:30Z,42.805,6.029,13.3041,4.60162,2470.684,2023-6-25T07:14:45Z
2023-06-25T05:15:33Z,42.805,6.029,13.3038,4.60132,2470.693,2023-6-25T07:17:48Z
2023-06-25T05:18:36Z,42.805,6.029,13.3061,4.60159,2470.717,2023-6-25T07:20:51Z
2023-06-25T05:21:39Z,42.805,6.029,13.3043,4.60160,2470.693,2023-6-25T07:23:54Z
2023-06-25T05:24:42Z,42.805,6.029,13.3050,4.60165,2470.707,2023-6-25T07:26:57Z
2023-06-25T05:27:45Z,42.805,6.029,13.3048,4.60142,2470.717,2023-6-25T07:30:00Z
2023-06-25T05:30:48Z,42.805,6.029,13.3052,4.60144,2470.684,2023-6-25T07:33:03Z
2023-06-25T05:33:52Z,42.805,6.029,13.3046,4.60140,2470.693,2023-6-25T07:36:06Z
2023-06-25T05:36:55Z,42.805,6.029,13.3036,4.60188,2470.707,2023-6-25T07:39:10Z
2023-06-25T05:39:58Z,42.805,6.029,13.3047,4.60193,2470.67,2023-6-25T07:42:13Z
2023-06-25T05:43:01Z,42.805,6.029,13.3060,4.60167,2470.707,2023-6-25T07:45:16Z
2023-06-25T05:46:04Z,42.805,6.029,13.3068,4.60132,2470.684,2023-6-25T07:48:19Z
2023-06-25T05:49:07Z,42.805,6.029,13.3055,4.60131,2470.646,2023-6-25T07:51:22Z
2023-06-25T05:52:10Z,42.805,6.029,13.3059,4.60155,2470.646,2023-6-25T07:54:25Z
2023-06-25T05:55:13Z,42.805,6.029,13.3050,4.60168,2470.693,2023-6-25T07:57:28Z
2023-06-25T05:58:16Z,42.805,6.029,13.3060,4.60200,2470.67,2023-6-25T08:00:31Z
2023-06-25T06:01:19Z,42.805,6.029,13.3069,4.60140,2470.707,2023-6-25T08:03:34Z
2023-06-25T06:04:22Z,42.805,6.029,13.3072,4.60157,2470.684,2023-6-25T08:06:37Z
2023-06-25T06:07:25Z,42.805,6.029,13.3042,4.60155,2470.684,2023-6-25T08:09:40Z
2023-06-25T06:10:29Z,42.805,6.029,13.3059,4.60144,2470.67,2023-6-25T08:12:44Z
2023-06-25T06:13:32Z,42.805,6.029,13.3043,4.60170,2470.661,2023-6-25T08:15:47Z
2023-06-25T06:16:35Z,42.805,6.029,13.3037,4.60156,2470.707,2023-6-25T08:18:50Z
2023-06-25T06:19:38Z,42.805,6.029,13.3039,4.60138,2470.646,2023-6-25T08:21:53Z
2023-06-25T06:22:41Z,42.805,6.029,13.3041,4.60167,2470.684,2023-6-25T08:24:56Z
2023-06-25T06:25:44Z,42.805,6.029,13.3034,4.60135,2470.646,2023-6-25T08:27:59Z
2023-06-25T06:28:47Z,42.805,6.029,13.3036,4.60132,2470.67,2023-6-25T08:31:02Z
2023-06-25T06:31:50Z,42.805,6.029,13.3039,4.60164,2470.67,2023-6-25T08:34:05Z
2023-06-25T06:34:53Z,42.805,6.029,13.3042,4.60189,2470.67,2023-6-25T08:37:08Z
2023-06-25T06:37:56Z,42.805,6.029,13.3044,4.60167,2470.67,2023-6-25T08:40:11Z
2023-06-25T06:40:59Z,42.805,6.029,13.3049,4.60180,2470.67,2023-6-25T08:43:14Z
2023-06-25T06:44:02Z,42.805,6.029,13.3046,4.60185,2470.67,2023-6-25T08:46:17Z
2023-06-25T06:47:06Z,42.805,6.029,13.3045,4.60182,2470.693,2023-6-25T08:49:20Z
2023-06-25T06:50:09Z,42.805,6.029,13.3051,4.60144,2470.67,2023-6-25T08:52:24Z
2023-06-25T06:53:12Z,42.805,6.029,13.3056,4.60116,2470.684,2023-6-25T08:55:27Z
2023-06-25T06:56:15Z,42.805,6.029,13.3045,4.60150,2470.684,2023-6-25T08:58:30Z
2023-06-25T06:59:18Z,42.805,6.029,13.3041,4.60167,2470.646,2023-6-25T09:01:33Z
2023-06-25T07:02:21Z,42.805,6.029,13.3036,4.60152,2470.693,2023-6-25T09:04:36Z
2023-06-25T07:05:24Z,42.805,6.029,13.3046,4.60095,2470.684,2023-6-25T09:07:39Z
2023-06-25T07:08:27Z,42.805,6.029,13.3048,4.60121,2470.693,2023-6-25T09:10:42Z
2023-06-25T07:11:30Z,42.805,6.029,13.3039,4.60143,2470.646,2023-6-25T09:13:45Z
2023-06-25T07:14:33Z,42.805,6.029,13.3038,4.60157,2470.707,2023-6-25T09:16:48Z
2023-06-25T07:17:36Z,42.805,6.029,13.3035,4.60167,2470.646,2023-6-25T09:19:51Z
2023-06-25T07:20:39Z,42.805,6.029,13.3036,4.60160,2470.684,2023-6-25T09:22:54Z
2023-06-25T07:23:43Z,42.805,6.029,13.3051,4.60115,2470.73,2023-6-25T09:25:58Z
2023-06-25T07:26:46Z,42.805,6.029,13.3042,4.60142,2470.684,2023-6-25T09:29:01Z
2023-06-25T07:29:49Z,42.805,6.029,13.3053,4.60181,2470.684,2023-6-25T09:32:04Z
2023-06-25T07:32:52Z,42.805,6.029,13.3062,4.60162,2470.707,2023-6-25T09:35:07Z
2023-06-25T07:35:55Z,42.805,6.029,13.3071,4.60110,2470.707,2023-6-25T09:38:10Z
2023-06-25T07:38:58Z,42.805,6.029,13.3053,4.60148,2470.684,2023-6-25T09:41:13Z
2023-06-25T07:42:01Z,42.805,6.029,13.3055,4.60143,2470.684,2023-6-25T09:44:16Z
2023-06-25T07:45:04Z,42.805,6.029,13.3075,4.60133,2470.693,2023-6-25T09:47:19Z
2023-06-25T07:48:07Z,42.805,6.029,13.3070,4.60145,2470.684,2023-6-25T09:50:22Z
2023-06-25T07:51:10Z,42.805,6.029,13.3038,4.60147,2470.661,2023-6-25T09:53:25Z
2023-06-25T07:54:13Z,42.805,6.029,13.3069,4.60157,2470.67,2023-6-25T09:56:28Z
2023-06-25T07:57:16Z,42.805,6.029,13.3071,4.60164,2470.684,2023-6-25T09:59:31Z
2023-06-25T08:00:20Z,42.805,6.029,13.3082,4.60139,2470.684,2023-6-25T10:02:35Z
2023-06-25T08:03:23Z,42.805,6.029,13.3085,4.60160,2470.67,2023-6-25T10:05:38Z
2023-06-25T08:06:26Z,42.805,6.029,13.3093,4.60125,2470.73,2023-6-25T10:08:41Z
2023-06-25T08:09:29Z,42.805,6.029,13.3082,4.60235,2470.67,2023-6-25T10:11:44Z
2023-06-25T08:12:32Z,42.805,6.029,13.3070,4.60135,2470.624,2023-6-25T10:14:47Z
2023-06-25T08:15:35Z,42.805,6.029,13.3085,4.60133,2470.693,2023-6-25T10:17:50Z
2023-06-25T08:18:38Z,42.805,6.029,13.3070,4.60149,2470.684,2023-6-25T10:20:53Z
2023-06-25T08:21:41Z,42.805,6.029,13.3050,4.60158,2470.661,2023-6-25T10:23:56Z
2023-06-25T08:24:44Z,42.805,6.029,13.3070,4.60129,2470.67,2023-6-25T10:26:59Z
2023-06-25T08:27:47Z,42.805,6.029,13.3041,4.60135,2470.707,2023-6-25T10:30:02Z
2023-06-25T08:30:51Z,42.805,6.029,13.3059,4.60160,2470.684,2023-6-25T10:33:06Z
2023-06-25T08:33:54Z,42.805,6.029,13.3070,4.60160,2470.67,2023-6-25T10:36:09Z
2023-06-25T08:36:58Z,42.805,6.029,13.3069,4.60137,2470.684,2023-6-25T10:39:12Z
2023-06-25T08:40:01Z,42.805,6.029,13.3063,4.60166,2470.717,2023-6-25T10:42:16Z
2023-06-25T08:43:04Z,42.805,6.029,13.3077,4.60132,2470.684,2023-6-25T10:45:19Z
2023-06-25T08:46:07Z,42.805,6.029,13.3082,4.60121,2470.67,2023-6-25T10:48:22Z
2023-06-25T08:49:10Z,42.805,6.029,13.3088,4.60173,2470.661,2023-6-25T10:51:25Z
2023-06-25T08:52:13Z,42.805,6.029,13.3082,4.60151,2470.67,2023-6-25T10:54:28Z
2023-06-25T08:55:16Z,42.805,6.029,13.3093,4.60125,2470.646,2023-6-25T10:57:31Z
2023-06-25T08:58:19Z,42.805,6.029,13.3096,4.60148,2470.684,2023-6-25T11:00:34Z
2023-06-25T09:01:22Z,42.805,6.029,13.3104,4.60121,2470.73,2023-6-25T11:03:37Z
2023-06-25T09:04:25Z,42.805,6.029,13.3100,4.60131,2470.707,2023-6-25T11:06:40Z
2023-06-25T09:07:28Z,42.805,6.029,13.3084,4.60112,2470.73,2023-6-25T11:09:43Z
2023-06-25T09:10:31Z,42.805,6.029,13.3064,4.60129,2470.67,2023-6-25T11:12:46Z
2023-06-25T09:13:35Z,42.805,6.029,13.3106,4.60124,2470.73,2023-6-25T11:15:50Z
2023-06-25T09:16:38Z,42.805,6.029,13.3084,4.60121,2470.67,2023-6-25T11:18:53Z
2023-06-25T09:19:41Z,42.805,6.029,13.3059,4.60122,2470.693,2023-6-25T11:21:56Z
2023-06-25T09:22:44Z,42.805,6.029,13.3062,4.60127,2470.73,2023-6-25T11:24:59Z
2023-06-25T09:25:47Z,42.805,6.029,13.3063,4.60129,2470.717,2023-6-25T11:28:02Z
2023-06-25T09:28:50Z,42.805,6.029,13.3049,4.60140,2470.717,2023-6-25T11:31:05Z
2023-06-25T09:31:53Z,42.805,6.029,13.3062,4.60120,2470.707,2023-6-25T11:34:08Z
2023-06-25T09:34:56Z,42.805,6.029,13.3044,4.60127,2470.707,2023-6-25T11:37:11Z
2023-06-25T09:37:59Z,42.805,6.029,13.3068,4.60110,2470.73,2023-6-25T11:40:14Z
2023-06-25T09:41:02Z,42.805,6.029,13.3048,4.60133,2470.707,2023-6-25T11:43:17Z
2023-06-25T09:44:05Z,42.805,6.029,13.3058,4.60140,2470.707,2023-6-25T11:46:20Z
2023-06-25T09:47:09Z,42.805,6.029,13.3076,4.60138,2470.693,2023-6-25T11:49:24Z
2023-06-25T09:50:12Z,42.805,6.029,13.3058,4.60129,2470.707,2023-6-25T11:52:27Z
2023-06-25T09:53:15Z,42.805,6.029,13.3067,4.60123,2470.717,2023-6-25T11:55:30Z
2023-06-25T09:56:18Z,42.805,6.029,13.3068,4.60098,2470.717,2023-6-25T11:58:33Z
2023-06-25T09:59:21Z,42.805,6.029,13.3044,4.60120,2470.693,2023-6-25T12:01:36Z
2023-06-25T10:02:24Z,42.805,6.029,13.3054,4.60112,2470.707,2023-6-25T12:04:39Z
2023-06-25T10:05:27Z,42.805,6.029,13.3058,4.60103,2470.717,2023-6-25T12:07:42Z
2023-06-25T10:08:30Z,42.805,6.029,13.3048,4.60114,2470.703,2023-6-25T12:10:45Z
2023-06-25T10:11:33Z,42.805,6.029,13.3060,4.60137,2470.73,2023-6-25T12:13:48Z
2023-06-25T10:14:36Z,42.805,6.029,13.3085,4.60117,2470.73,2023-6-25T12:16:51Z
2023-06-25T10:17:39Z,42.805,6.029,13.3063,4.60119,2470.717,2023-6-25T12:19:54Z
2023-06-25T10:20:42Z,42.805,6.029,13.3056,4.60121,2470.717,2023-6-25T12:22:57Z
2023-06-25T10:23:46Z,42.805,6.029,13.3081,4.60112,2470.754,2023-6-25T12:26:01Z
2023-06-25T10:26:49Z,42.805,6.029,13.3083,4.60127,2470.707,2023-6-25T12:29:04Z
2023-06-25T10:29:52Z,42.805,6.029,13.3076,4.60117,2470.73,2023-6-25T12:32:07Z
2023-06-25T10:32:54Z,42.805,6.029,13.3070,4.60127,2470.717,2023-6-25T12:35:09Z
2023-06-25T10:35:57Z,42.805,6.029,13.3077,4.60117,2470.707,2023-6-25T12:38:12Z
2023-06-25T10:39:00Z,42.805,6.029,13.3076,4.60110,2470.754,2023-6-25T12:41:15Z
2023-06-25T10:42:03Z,42.805,6.029,13.3061,4.60119,2470.74,2023-6-25T12:44:18Z
2023-06-25T10:45:07Z,42.805,6.029,13.3096,4.60114,2470.703,2023-6-25T12:47:22Z
2023-06-25T10:48:10Z,42.805,6.029,13.3076,4.60116,2470.693,2023-6-25T12:50:25Z
2023-06-25T10:51:13Z,42.805,6.029,13.3078,4.60110,2470.754,2023-6-25T12:53:28Z
2023-06-25T10:54:16Z,42.805,6.029,13.3085,4.60119,2470.73,2023-6-25T12:56:31Z
2023-06-25T10:57:19Z,42.805,6.029,13.3082,4.60123,2470.707,2023-6-25T12:59:34Z
2023-06-25T11:00:22Z,42.805,6.029,13.3070,4.60119,2470.717,2023-6-25T13:02:37Z
2023-06-25T11:03:25Z,42.805,6.029,13.3063,4.60123,2470.73,2023-6-25T13:05:40Z
2023-06-25T11:06:28Z,42.805,6.029,13.3091,4.60127,2470.717,2023-6-25T13:08:43Z
2023-06-25T11:09:31Z,42.805,6.029,13.3074,4.60115,2470.707,2023-6-25T13:11:46Z
2023-06-25T11:12:34Z,42.805,6.029,13.3069,4.60111,2470.73,2023-6-25T13:14:49Z
2023-06-25T11:15:37Z,42.805,6.029,13.3081,4.60118,2470.693,2023-6-25T13:17:52Z
2023-06-25T11:18:41Z,42.805,6.029,13.3065,4.60110,2470.73,2023-6-25T13:20:56Z
2023-06-25T11:21:44Z,42.805,6.029,13.3060,4.60108,2470.717,2023-6-25T13:23:59Z
2023-06-25T11:24:47Z,42.805,6.029,13.3056,4.60115,2470.73,2023-6-25T13:27:02Z
2023-06-25T11:27:50Z,42.805,6.029,13.3067,4.60126,2470.74,2023-6-25T13:30:05Z
2023-06-25T11:30:53Z,42.805,6.029,13.3070,4.60120,2470.717,2023-6-25T13:33:08Z
2023-06-25T11:33:56Z,42.805,6.029,13.3073,4.60122,2470.73,2023-6-25T13:36:11Z
2023-06-25T11:36:59Z,42.805,6.029,13.3072,4.60117,2470.693,2023-6-25T13:39:14Z
2023-06-25T11:40:02Z,42.805,6.029,13.3076,4.60129,2470.717,2023-6-25T13:42:17Z
2023-06-25T11:43:05Z,42.805,6.029,13.3065,4.60129,2470.693,2023-6-25T13:45:20Z
2023-06-25T11:46:08Z,42.805,6.029,13.3084,4.60136,2470.73,2023-6-25T13:48:23Z
2023-06-25T11:49:11Z,42.805,6.029,13.3044,4.60129,2470.707,2023-6-25T13:51:26Z
2023-06-25T11:52:15Z,42.805,6.029,13.3037,4.60114,2470.693,2023-6-25T13:54:30Z
2023-06-25T11:55:18Z,42.805,6.029,13.3023,4.60128,2470.693,2023-6-25T13:57:33Z
2023-06-25T11:58:21Z,42.805,6.029,13.3023,4.60122,2470.717,2023-6-25T14:00:36Z
2023-06-25T12:01:24Z,42.805,6.029,13.3030,4.60104,2470.707,2023-6-25T14:03:39Z
2023-06-25T12:04:27Z,42.805,6.029,13.3021,4.60108,2470.717,2023-6-25T14:06:42Z
2023-06-25T12:07:30Z,42.805,6.029,13.3022,4.60099,2470.707,2023-6-25T14:09:45Z
2023-06-25T12:10:33Z,42.805,6.029,13.3019,4.60097,2470.73,2023-6-25T14:12:48Z
2023-06-25T12:13:36Z,42.805,6.029,13.3021,4.60099,2470.73,2023-6-25T14:15:51Z
2023-06-25T12:16:39Z,42.805,6.029,13.3025,4.60096,2470.754,2023-6-25T14:18:54Z
2023-06-25T12:19:42Z,42.805,6.029,13.3017,4.60108,2470.73,2023-6-25T14:21:57Z
2023-06-25T12:22:45Z,42.805,6.029,13.3023,4.60101,2470.693,2023-6-25T14:25:00Z
2023-06-25T12:25:49Z,42.805,6.029,13.3019,4.60114,2470.693,2023-6-25T14:28:03Z
2023-06-25T12:28:52Z,42.805,6.029,13.3020,4.60094,2470.717,2023-6-25T14:31:07Z
2023-06-25T12:31:55Z,42.805,6.029,13.3021,4.60087,2470.67,2023-6-25T14:34:10Z
2023-06-25T12:34:58Z,42.805,6.029,13.3025,4.60084,2470.73,2023-6-25T14:37:13Z
2023-06-25T12:38:01Z,42.805,6.029,13.3020,4.60083,2470.717,2023-6-25T14:40:16Z
2023-06-25T12:41:04Z,42.805,6.029,13.3021,4.60084,2470.73,2023-6-25T14:43:19Z
2023-06-25T12:44:07Z,42.805,6.029,13.3024,4.60084,2470.73,2023-6-25T14:46:22Z
2023-06-25T12:47:10Z,42.805,6.029,13.3020,4.60084,2470.693,2023-6-25T14:49:25Z
2023-06-25T12:50:13Z,42.805,6.029,13.3019,4.60084,2470.693,2023-6-25T14:52:28Z
2023-06-25T12:53:16Z,42.805,6.029,13.3019,4.60082,2470.717,2023-6-25T14:55:31Z
2023-06-25T12:56:19Z,42.805,6.029,13.3024,4.60084,2470.707,2023-6-25T14:58:34Z
2023-06-25T12:59:22Z,42.805,6.029,13.3024,4.60082,2470.693,2023-6-25T15:01:37Z
2023-06-25T13:02:26Z,42.805,6.029,13.3026,4.60081,2470.707,2023-6-25T15:04:41Z
2023-06-25T13:05:29Z,42.805,6.029,13.3021,4.60082,2470.717,2023-6-25T15:07:44Z
2023-06-25T13:08:32Z,42.805,6.029,13.3023,4.60081,2470.693,2023-6-25T15:10:47Z
2023-06-25T13:11:35Z,42.805,6.029,13.3022,4.60082,2470.717,2023-6-25T15:13:50Z
2023-06-25T13:14:38Z,42.805,6.029,13.3022,4.60082,2470.707,2023-6-25T15:16:53Z
2023-06-25T13:17:41Z,42.805,6.029,13.3019,4.60084,2470.693,2023-6-25T15:19:56Z
2023-06-25T13:20:44Z,42.805,6.029,13.3022,4.60081,2470.707,2023-6-25T15:22:59Z
2023-06-25T13:23:47Z,42.805,6.029,13.3020,4.60082,2470.707,2023-6-25T15:26:02Z
2023-06-25T13:26:50Z,42.805,6.029,13.3022,4.60081,2470.693,2023-6-25T15:29:05Z
2023-06-25T13:29:53Z,42.805,6.029,13.3023,4.60081,2470.67,2023-6-25T15:32:08Z
2023-06-25T13:32:56Z,42.805,6.029,13.3025,4.60084,2470.693,2023-6-25T15:35:11Z
2023-06-25T13:36:00Z,42.805,6.029,13.3024,4.60081,2470.717,2023-6-25T15:38:14Z
2023-06-25T13:39:03Z,42.805,6.029,13.3021,4.60085,2470.707,2023-6-25T15:41:18Z
2023-06-25T13:42:06Z,42.805,6.029,13.3018,4.60081,2470.693,2023-6-25T15:44:21Z
2023-06-25T13:45:09Z,42.805,6.029,13.3020,4.60080,2470.693,2023-6-25T15:47:24Z
2023-06-25T13:48:12Z,42.805,6.029,13.3018,4.60082,2470.684,2023-6-25T15:50:27Z
2023-06-25T13:51:15Z,42.805,6.029,13.3022,4.60081,2470.717,2023-6-25T15:53:30Z
2023-06-25T13:54:18Z,42.805,6.029,13.3022,4.60082,2470.707,2023-6-25T15:56:33Z
2023-06-25T13:57:21Z,42.805,6.029,13.3021,4.60081,2470.67,2023-6-25T15:59:36Z
2023-06-25T14:00:24Z,42.805,6.029,13.3021,4.60081,2470.707,2023-6-25T16:02:39Z
2023-06-25T14:03:27Z,42.805,6.029,13.3019,4.60081,2470.679,2023-6-25T16:05:42Z
2023-06-25T14:06:30Z,42.805,6.029,13.3024,4.60082,2470.684,2023-6-25T16:08:45Z
2023-06-25T14:09:34Z,42.805,6.029,13.3020,4.60081,2470.73,2023-6-25T16:11:48Z
2023-06-25T14:12:37Z,42.805,6.029,13.3022,4.60081,2470.693,2023-6-25T16:14:52Z
2023-06-25T14:15:40Z,42.805,6.029,13.3022,4.60082,2470.707,2023-6-25T16:17:55Z
2023-06-25T14:18:43Z,42.805,6.029,13.3021,4.60080,2470.684,2023-6-25T16:20:58Z
2023-06-25T14:21:46Z,42.805,6.029,13.3017,4.60081,2470.73,2023-6-25T16:24:01Z
2023-06-25T14:24:49Z,42.805,6.029,13.3020,4.60082,2470.693,2023-6-25T16:27:04Z
2023-06-25T14:27:52Z,42.805,6.029,13.3019,4.60081,2470.707,2023-6-25T16:30:07Z
2023-06-25T14:30:55Z,42.805,6.029,13.3022,4.60081,2470.661,2023-6-25T16:33:10Z
2023-06-25T14:33:59Z,42.805,6.029,13.3021,4.60081,2470.693,2023-6-25T16:36:14Z
2023-06-25T14:37:02Z,42.805,6.029,13.3022,4.60081,2470.684,2023-6-25T16:39:17Z
2023-06-25T14:40:05Z,42.805,6.029,13.3019,4.60081,2470.693,2023-6-25T16:42:20Z
2023-06-25T14:43:08Z,42.805,6.029,13.3022,4.60080,2470.67,2023-6-25T16:45:23Z
2023-06-25T14:46:11Z,42.805,6.029,13.3016,4.60081,2470.67,2023-6-25T16:48:26Z
2023-06-25T14:49:14Z,42.805,6.029,13.3021,4.60080,2470.684,2023-6-25T16:51:29Z
2023-06-25T14:52:17Z,42.805,6.029,13.3021,4.60084,2470.67,2023-6-25T16:54:32Z
2023-06-25T14:55:20Z,42.805,6.029,13.3024,4.60080,2470.684,2023-6-25T16:57:35Z
2023-06-25T14:58:23Z,42.805,6.029,13.3023,4.60081,2470.646,2023-6-25T17:00:38Z
2023-06-25T15:01:26Z,42.805,6.029,13.3019,4.60084,2470.646,2023-6-25T17:03:41Z
2023-06-25T15:04:29Z,42.805,6.029,13.3020,4.60081,2470.67,2023-6-25T17:06:44Z
2023-06-25T15:07:33Z,42.805,6.029,13.3020,4.60081,2470.67,2023-6-25T17:09:48Z
2023-06-25T15:10:36Z,42.805,6.029,13.3022,4.60081,2470.684,2023-6-25T17:12:51Z
2023-06-25T15:13:39Z,42.805,6.029,13.3021,4.60081,2470.67,2023-6-25T17:15:54Z